STARLINK-11482, 62520

Orbit data source: Space-Track

STARLINK-11482, 62520 is a payload satellite owned by SpaceX/Seattle (US) in LEO that was launched on Wed, 08 Jan 2025 UTC via an FALCON 9 launch vehicle from the Air Force Eastern Test Range (AFETR). Payload-class satellites include a variety of spacecraft equipped with specific instruments for various scientific and technological missions. These include communications satellites like Starlink; space stations such as the ISS; scientific satellites like the Hubble; Earth observation satellites from companies like Planet Labs, Umbra, and HawkEye 360; GPS; miniature CubeSats for education and research; and military/defense satellites.

Loading next visibility...
Identifier
62520, 2025-004K
Orbit
LEO
Country
Flag of USUS
Related business
Manufacturer
SpaceX/Seattle
Mission
Operational Commercial Communications
Bus & Motor
STARLINK V2MD, Unknown motor
Mass
960 kg wet, ~910 kg dry
Launch date (UTC)
2025-01-08 (1 year ago)
Launch vehicle
FALCON 9
Launch site
Air Force Eastern Test Range (AFETR)
Object type
Payload
Rocket body
Debris
Shape & HBR
Box + 2 Pan, 18.1 m
Radar Cross Section
36.964 m², Large (>1 m²)

Expand to show TLE details & history
Last TLE update: 11 hours ago

TLE from 11 hours ago
0 STARLINK-11482
1 62520U 25004K   26171.38587058  .00152208  00000-0  11676-2 0  9998
2 62520  43.0012 171.3807 0001739 268.4284  91.6385 15.70849957 83365
Epoch: 2026-06-20T09:15Z
TLE epoch observation values (Epoch: 2026-06-20T09:15:39.218Z)
Latitude
0.00003°
Longitude
123.86608°
Altitude
356.272 km
Speed
7.697 km/s
True Right ascension
11h 25m 31s
True Declination
0° 00' 00"
Sunlit
Object was in daylight at epoch
Visualization orbit readout
Latitude
Unknown
Longitude
Unknown
Altitude
Unknown
Speed
Unknown
Apparent Right ascension
Unknown
Apparent Declination
Unknown
Sunlit
N/A
Visualization observer readout
Local Sidereal Time
07:21:55
Azimuth
Unknown
Elevation
Unknown
Doppler factor
Unknown
Orbital elements
Apogee altitude
359.619 km
Perigee altitude
357.276 km
Semi-major axis
6,736.585 km
Eccentricity
0.00017
Inclination
43.0012°
RAAN
171.3807°
Arg. of periapsis
268.4284°
True anomaly
91.65842°
Mean anomaly
91.6385°
Eccentric anomaly
91.64846°
Mean motion
3.9254 °/min
Orbital period
91.71 mins
BSTAR
0.0011676
Loading maneuver chart data...
Computing Atmospheric mass density...
Loading historical data...
Loading historical data...
Loading historical data...
Loading historical data...
Loading historical data...
Loading historical data...
Loading historical data...

Documentation

Showing up to 5 results
|